|
NORAD ID: 2372 Int'l Code: 1963-014T
Perigee: 3,141.7 km
Apogee: 4,137.2 km
Inclination: 87.4 °
Period: 166.1 minutes
Semi major axis: 10010 km
Launch date: May 9, 1963
Source: United States (US)
Two Line Element Set (TLE):
1 02372U 63014T 13143.78364309 -.00001084 00000-0 -44367+0 0 9921
2 02372 087.3678 240.5084 0497252 058.5502 082.2129 08.66808619510228
Source:
NASA's NSSDC Master Catalog entry for WESTFORD NEEDLES
|